Meath Environmental Platform

Observations for Trim Market St

Time AQI Temp °C Hum % Pres Pa CO μg/m³ H₂S μg/m³ NO μg/m³ NO₂ μg/m³ O₃ μg/m³ SO₂ μg/m³ PM1 μg/m³ PM2.5 μg/m³ PM10 μg/m³
Wednesday 8 July 2026
18:15 1 34.7 35 66,447 0 31.99 0 25.39 24.01 0.83 3.56 6.29 8.36
18:10 1 34.8 34 66,529 0 17.3 0 20.19 4.48 0.22 4.99 8.49 10.88
18:07 1 34.9 34 66,608 0 17.7 0 15.58 11.2 1.47 4.28 9.04 10.89
18:06 1 35 34 66,602 0 18.02 0 16.87 17.75 1.29 4.28 8.51 11.73
18:03 1 35.1 34 66,610 0 22.14 0 26.06 0 0.37 4.28 8.52 10.05
18:02 1 35.1 34 66,600 0 22 0 20.37 5.88 1 3.56 6.92 7.53
18:01 1 35.1 34 66,617 0 24.08 0 21.68 1.59 1.57 3.56 8 9.21
18:00 1 35.2 34 66,614 0 25.18 0 18.86 14.98 2.45 4.28 8 9.21
17:59 1 35.2 33 66,641 0 20.94 0 16.68 11.41 2.3 2.85 7.47 9.21
17:58 1 35.3 33 66,639 0 21.07 0 15.18 11.11 2.58 4.28 7.48 9.22
17:57 1 35.3 33 66,637 0 22.96 0 17.59 1.29 2.25 4.28 7.49 8.37
17:56 1 35.4 33 66,665 0 25.06 0 20.26 13.99 1.92 4.28 7.49 9.22
17:55 1 35.4 33 66,643 0 21.82 0 29.98 0 0 4.99 8.57 10.07
17:54 1 35.5 33 66,641 0 20.38 0 29.26 0 0.65 4.99 8.04 9.22
17:53 1 35.6 33 66,665 0 20.26 0 26.95 0 0.45 5.7 9.12 10.92
17:52 1 35.6 33 66,667 0 19.97 0 13.16 14.37 3.31 4.28 8.05 9.22
17:51 1 35.7 33 66,671 0 20.55 0 13.94 15.15 3.01 4.99 8.05 10.07
17:50 1 35.8 32 66,675 0 21.54 0 17.02 5.07 2.24 4.99 8.6 10.92
17:47 1 36 32 66,710 0 25.96 0 16.79 14.52 2.93 2.85 6.45 8.38
17:42 1 36.3 32 66,746 0 35.1 0 24.58 4.07 2.46 4.28 8.1 10.94